カタログに戻る

KUIPER-00272

運用中通信LEO
NORAD 68588·PAYLOAD·🇺🇸 United States

打ち上げ Apr 4, 2026 から Cape Canaveral Space Force Station

Loading…

次のパス (今後24時間)

TLE

最新Source: CelesTrak SupGP

元期: Sep 15, 2026, 01:50 UTC

1 68588C 26072R   26258.07685185  .00005030  00000+0  65854-3 0  2581
2 68588  51.8968 155.6352 0001005  91.5110 273.8614 14.79923577    10

AllMySatでKUIPER-00272をリアルタイム追跡

Download on the App Store